This is the latest recevied weather packets stored in our database for station/object K5GTX. If no packets are shown the sender has not sent any weather packets the latest 10 day(s).
| Time | Temp. | Humidity | Pressure | Rain* | Wind** | Luminosity | Snow |
|---|---|---|---|---|---|---|---|
| 1777996653 | 26.11° C | 99% | 1011 hPa | 0 mm | - | 391 W/m² | - |
| 1777996349 | 25.56° C | 99% | 1011.2 hPa | 0 mm | - | 379 W/m² | - |
| 1777996045 | 25.56° C | 99% | 1011 hPa | 0 mm | - | 336 W/m² | - |
| 1777995741 | 25.56° C | 99% | 1011 hPa | 0 mm | - | 324 W/m² | - |
| 1777995438 | 25.56° C | 99% | 1011 hPa | 0 mm | - | 303 W/m² | - |
| 1777995135 | 25.56° C | 99% | 1011 hPa | 0 mm | - | 318 W/m² | - |
| 1777994833 | 25.56° C | 99% | 1011.2 hPa | 0 mm | - | 93 W/m² | - |
| 1777994529 | 25.56° C | 99% | 1011.2 hPa | 0 mm | - | 416 W/m² | - |
| 1777994223 | 25° C | 99% | 1011.3 hPa | 0 mm | - | 525 W/m² | - |
| 1777993921 | 25° C | 99% | 1011.6 hPa | 0 mm | - | 242 W/m² | - |
| 1777993617 | 25° C | 99% | 1011.3 hPa | 0 mm | - | 234 W/m² | - |
| 1777993315 | 25° C | 99% | 1011.5 hPa | 0 mm | - | 242 W/m² | - |
| 1777993009 | 24.44° C | 99% | 1011.4 hPa | 0 mm | - | 259 W/m² | - |
| 1777992709 | 24.44° C | 99% | 1011.2 hPa | 0 mm | - | 274 W/m² | - |
| 1777992405 | 24.44° C | 99% | 1011.3 hPa | 0 mm | - | 321 W/m² | - |
| 1777992103 | 24.44° C | 99% | 1011.4 hPa | 0 mm | - | 294 W/m² | - |
| 1777991800 | 24.44° C | 99% | 1011.2 hPa | 0 mm | - | 229 W/m² | - |
| 1777991497 | 23.89° C | 99% | 1011 hPa | 0 mm | - | 224 W/m² | - |
| 1777991195 | 23.89° C | 99% | 1011.2 hPa | 0 mm | - | 172 W/m² | - |
| 1777990892 | 23.89° C | 99% | 1011.5 hPa | 0 mm | - | 206 W/m² | - |
| 1777990590 | 23.89° C | 99% | 1011.4 hPa | 0 mm | - | 79 W/m² | - |
| 1777989982 | 23.33° C | 99% | 1011.6 hPa | 0 mm | - | 164 W/m² | - |
| 1777989680 | 22.78° C | 99% | 1011.4 hPa | 0 mm | - | 139 W/m² | - |
| 1777989375 | 22.78° C | 99% | 1011.6 hPa | 0 mm | - | 116 W/m² | - |
| 1777989073 | 22.78° C | 99% | 1011.2 hPa | 0 mm | - | 150 W/m² | - |
* Rain latest hour (hover to see other rain measurements)
** Current wind speed in m/s (hover to see current wind gust speed)